Cloud_Cover
5 18 4 2 0 0 0 0 0 0 0 0 0 0 0 0 0 0 0 0 0 0 0 0 0 0 0 0 0 0 0 0 0 2 3 17 5 2 1 0 5 67 100
4 4 5 5 5 0 0 0 1 0 0 0 0 0 0 0 0 0 0 0 0 0 0 0 0 0 0 0 0 0 0 0 0 0 0 0 93 4 4 0 0 2 4
30 28 79 61 71 10 5 8 5 5 2 0 0 0 0 0 0 0 0 0 0 0 0 0 0 0 0 0 0 0 0 0 0 0 0 5 85 96 19 2 0 1 4
26 61 5 8 9 5 5 5 5 5 5 0 0 0 0 0 0 0 0 0 0 0 0 0 0 0 0 0 0 0 0 0 0 0 3 42 29 11 5 5 0 0 1
88 20 5 5 5 5 5 5 5 4 3 0 0 0 0 0 0 0 0 0 0 0 0 0 0 0 0 0 0 0 0 0 0 0 99 100 100 67 5 4 2 0 0
0 0 2 1 2 3 5 0 0 0 0 0 0 0 0 0 0 0 0 0 0 0 0 6 0 0 0 0 0 0 0 0 0 4 100 100 99 12 8 2 0 0 0
3 1 0 0 0 0 0 0 0 0 0 0 0 0 0 0 0 0 0 0 0 0 0 0 0 0 0 0 0 0 0 87 0 21 70 100 2 5 4 2 0 0 1
0 0 0 0 0 0 0 0 0 0 0 0 0 0 0 0 0 0 0 0 0 1 0 0 0 0 0 0 0 0 0 4 0 2 0 4 0 0 1 4 5 5 5
0 0 0 0 0 1 19 18 12 0 0 0 0 0 0 0 0 0 0 0 0 5 5 5 3 3 0 3 4 1 5 14 0 1 2 7 0 3 2 1 5 5 5
12 33 5 4 7 27 98 41 32 10 2 0 0 0 0 0 0 0 0 0 0 0 3 5 5 5 5 5 5 5 5 3 1 0 0 28 0 33 0 0 0 0 0
6 14 5 0 0 3 18 44 32 31 23 8 0 3 94 11 2 0 0 0 0 0 0 1 0 5 0 3 5 40 42 3 0 0 0 1 8 1 0 0 0 0 0
18 0 0 0 0 0 0 7 45 73 85 59 22 68 43 22 16 1 0 0 0 0 5 5 0 1 0 11 5 14 5 5 5 0 0 0 18 0 0 0 0 0 0
0 0 0 0 0 0 0 2 15 56 88 80 42 63 32 2 0 0 12 10 37 4 11 36 12 9 5 34 34 5 5 5 8 2 5 1 0 0 0 0 0 0 0
5 1 2 1 0 62 27 95 54 5 34 60 51 37 24 0 2 0 9 65 58 17 12 24 29 32 5 5 18 5 5 5 3 52 100 27 0 0 0 0 0 0 0
5 8 1 0 2 0 74 100 100 100 78 3 6 22 6 0 1 0 0 34 38 6 11 7 99 29 17 11 33 78 93 43 88 44 100 8 92 0 0 0 0 0 0
98 37 6 0 1 17 0 37 100 100 100 67 71 98 18 5 6 96 8 5 0 5 6 86 5 19 89 86 21 86 100 17 100 14 55 22 16 61 5 2 0 0 1
76 28 4 2 0 0 0 0 84 100 100 79 99 100 100 61 22 71 100 90 7 1 7 76 92 32 5 6 5 99 77 81 77 83 100 100 100 100 96 19 0 4 0
100 100 64 10 5 4 4 4 2 87 100 99 100 100 100 48 49 6 66 100 41 2 5 8 44 37 88 79 78 99 94 37 47 100 100 100 100 100 100 100 61 74 3
42 42 80 100 70 22 6 5 3 4 50 100 85 100 100 100 100 96 100 16 9 5 1 4 24 100 100 97 100 83 100 100 74 62 100 66 100 92 70 93 99 72 7
80 64 53 100 100 94 5 1 1 0 41 86 95 91 100 100 100 82 98 94 77 30 4 3 5 77 100 100 100 100 96 100 100 98 100 100 5 85 17 34 35 5 90
5 5 1 5 4 4 0 0 0 0 0 0 9 90 89 100 100 100 23 48 22 86 0 5 10 90 100 100 100 99 57 100 100 100 100 100 74 62 10 5 2 72 7
0 2 1 1 0 0 0 0 4 0 0 0 0 9 73 88 100 100 100 100 100 36 5 4 5 5 97 100 100 77 12 17 8 100 100 88 78 27 82 100 80 93 100
5 5 5 6 73 50 0 8 38 30 1 0 0 0 3 66 100 100 100 99 12 29 13 5 5 5 11 52 100 77 22 15 33 86 100 100 65 91 95 65 100 100 100
5 5 24 42 100 46 9 61 87 99 27 16 2 0 0 4 91 100 100 99 5 5 7 77 97 90 70 55 91 58 5 5 53 24 100 100 81 28 99 91 100 100 100
5 11 97 99 100 88 100 100 100 100 88 3 3 0 0 0 35 97 100 53 91 92 73 90 98 99 87 84 97 100 100 78 22 100 100 100 86 92 91 100 86 100 100
6 21 90 100 100 100 100 100 100 100 100 66 2 2 0 1 6 100 100 97 97 38 100 100 100 92 34 94 94 6 100 100 78 100 100 100 100 98 100 100 100 100 100